Location: Paderno d�Adda
(45.6667°N, 9.4333°E)
Time: 17:02:48
(UTC+00:00)

Cosmos 1634 Rocket - Pass Details

Date: 19 September 2020
Orbit: 961 x 991 km, 82.9° (Epoch: 20 October)

Event Time Altitude Azimuth Distance (km) Brightness Sun altitude
Exits shadow 19:59:04 45° 184° (S) 1,291 4.4 -26.3°
Maximum altitude 20:01:09 88° 98° (E) 970 3.8 -26.6°
Drops below altitude 10° 20:07:22 10° 9° (N) 2,715 6.6 -27.5°
Sets 20:09:54 0° 9° (N) 3,669 7.3 -27.9°
